Hourly Data Report for October 04, 2014

All times are specified in Local Standard Time (LST). Add 1 hour to adjust for Daylight Saving Time where and when it is observed.

SAINT JOHN A
NEW BRUNSWICK

45°18'58.000" N
65°53'24.000" W
108.80 m
8104901
71609
YSJ

Download Data

Hourly Data (October 2014)
Hourly Data Report for October 4, 2014
Temp Definition
°C
Dew Point Temp Definition
°C
Rel Hum Definition
%
Wind Dir Definition
10's deg

Wind Spd Definition
km/h
Visibility Definition
km
Stn Press Definition
kPa
Hmdx Definition


Wind Chill Definition


Weather Definition


TIME
00:00 Legend Double Dagger 10.6 9.0 90 5 10 24.1 100.22     LegendNANA
01:00 Legend Double Dagger 10.5 9.4 93 2 7 24.1 100.16     LegendNANA
02:00 Legend Double Dagger 11.7 10.9 95 6 11 19.3 100.11     Cloudy
03:00 Legend Double Dagger 11.4 11.4 100 7 9 19.3 100.06     LegendNANA
04:00 Legend Double Dagger 11.5 11.5 100 7 14 8.1 100.00     Drizzle,Fog
05:00 Legend Double Dagger 11.5 11.5 100 8 16 8.1 99.98     Drizzle,Fog
06:00 Legend Double Dagger 11.6 11.6 100 8 14 9.7 99.98     Rain,Fog
07:00 Legend Double Dagger 11.7 11.7 100 7 15 3.2 99.99     Drizzle,Fog
08:00 Legend Double Dagger 12.1 12.1 100 9 17 4.8 99.97     Fog
09:00 Legend Double Dagger 12.9 12.9 100 10 16 4.8 99.94     Fog
10:00 Legend Double Dagger 13.7 13.6 99 10 28 4.8 99.91     Fog
11:00 Legend Double Dagger 14.1 13.6 97 10 25 4.8 99.89     Fog
12:00 Legend Double Dagger 15.0 14.1 94 10 23 12.9 99.83     LegendNANA
13:00 Legend Double Dagger 15.3 14.4 94 9 22 24.1 99.76     LegendNANA
14:00 Legend Double Dagger 16.7 15.1 90 9 20 24.1 99.70     Mostly Cloudy
15:00 Legend Double Dagger 16.0 14.9 93 10 22 24.1 99.69     Rain Showers
16:00 Legend Double Dagger 16.2 14.9 92 10 22 24.1 99.68     LegendNANA
17:00 Legend Double Dagger 16.3 15.2 93 11 20 24.1 99.67     Mostly Cloudy
18:00 Legend Double Dagger 16.1 15.3 95 12 16 24.1 99.68     LegendNANA
19:00 Legend Double Dagger 16.2 15.3 94 11 21 24.1 99.66     Drizzle
20:00 Legend Double Dagger 15.8 15.0 95 10 23 16.1 99.67     Drizzle
21:00 Legend Double Dagger 15.7 14.9 95 11 23 16.1 99.66     Drizzle
22:00 Legend Double Dagger 15.4 14.6 95 11 24 16.1 99.61     Drizzle
23:00 Legend Double Dagger 15.0 14.2 95 10 27 16.1 99.58     Drizzle

Notes on Data Quality.

Legend

  • E = Estimated
  • M = Missing
  • NA = Not Available
  • ‡ = Partner data that is not subject to review by the National Climate Archives
Date modified: